Regional Weather Roundup
Issued by NWS

Home | Current Version | Previous Version | Graphics & Text | Print | Product List | Glossary On
Versions: 1 2 3 4 5 6 7 8 9 10 11 12 13 14 15 16 17 18 19 20 21 22 23 24 25 26 27 28 29 30 31 32 33 34 35 36 37 38 39 40 41 42 43 44 45 46 47 48 49 50
972
ASUS43 KDTX 271601
RWRMI
MICHIGAN HOURLY REGIONAL WEATHER ROUNDUP
NATIONAL WEATHER SERVICE DETROIT/PONTIAC MI
1200 PM EDT THU APR 27 2017

NOTE: "FAIR" INDICATES FEW OR NO CLOUDS BELOW 12,000 FEET WITH NO
SIGNIFICANT WEATHER AND/OR OBSTRUCTION TO VISIBILITY.

MIZ047>049-052>055-059>063-066>070-074>076-081>083-271700-
SOUTHEAST LOWER MICHIGAN

CITY           SKY/WX    TMP DP  RH WIND       PRES   REMARKS
ADRIAN         LGT RAIN  61  57  87 SW16      29.53R
ALMA           CLOUDY    68  53  58 S22G36    29.43R
ANN ARBOR      LGT RAIN  62  58  86 S12G22    29.52R
BAD AXE        PTSUNNY   73  54  52 S24G32    29.47S
CARO           PTSUNNY   71  54  54 S23G35    29.45R
DETROIT CITY   CLOUDY    69  55  60 S10       29.50F
DETROIT        LGT RAIN  67  57  70 SW21G32   29.53R
FLINT          CLOUDY    68  53  58 S15G33    29.47S
GROSSE ILE     CLOUDY    61  54  76 SW5       29.51S
HILLSDALE      HVY RAIN  61  54  77 SW14      29.51R
HOWELL         CLOUDY    66  51  59 S17G25    29.49R

CITY           SKY/WX    TMP DP  RH WIND       PRES   REMARKS
JACKSON        CLOUDY    64  56  75 S10G20    29.48S
LAMBERTVILLE   RAIN      61  58  88 SW13G18   29.55R
LANSING        PTSUNNY   69  52  54 S24G35    29.45R
LAPEER         CLOUDY    70  52  52 S21G31    29.49S
MASON          CLOUDY    66  54  64 S9G20     29.47S
MONROE         LGT RAIN  64  57  79 MISG      29.53R
MT. CLEMENS    PTSUNNY   70  60  70 S15       29.49F
PONTIAC        RAIN      67  53  61 S14G24    29.50R
PORT HOPE        N/A     74  56  53 S15G28    29.44F
PORT HURON     MOSUNNY   75  55  50 S15G28    29.51F
TRI CITIES     CLOUDY    70  54  56 S18G37    29.43R
MIDLAND        CLOUDY    71  51  49 S17G36    29.42R
TROY           CLOUDY    71  52  50 S13G18    29.52S
SAGINAW HB     CLOUDY    72  52  49 S24       29.44R
$$
MIZ043>046-050>051-056>058-064>065-071>073-077>080-271700-
SOUTHWEST LOWER MICHIGAN

CITY           SKY/WX    TMP DP  RH WIND       PRES   REMARKS
BATTLE CREEK   CLOUDY    64  49  57 SW25G39   29.48R
BENTON HARBOR  CLOUDY    50  43  77 SW22G30   29.55R
BIG RAPIDS     CLOUDY    62  47  59 SW30G44   29.38R
COLDWATER      CLOUDY    61  50  67 SW28G33   29.52R
FREMONT        CLOUDY    49  46  92 SW24G35   29.45R FOG
HOLLAND        CLOUDY    49  46  90 SW26G33   29.52R FOG
GRAND RAPIDS   PTSUNNY   57  48  72 SW33G41   29.48R
IONIA          CLOUDY    67  49  51 SW26G41   29.43R
KALAMAZOO      PTSUNNY   59  45  59 SW22G35   29.52R
LUDINGTON      CLOUDY    47  45  93 SW25G38   29.37R
MARSHALL       CLOUDY    65  52  62 SW20G37   29.49R
MOUNT PLEASANT PTSUNNY   67  50  54 S18G29    29.40R
MUSKEGON       CLOUDY    48  44  86 SW21G32   29.50R
SOUTH HAVEN    CLOUDY    48  44  84 SW21G31   29.54R
$$
MIZ016>042-271700-
NORTHERN LOWER MICHIGAN

CITY           SKY/WX    TMP DP  RH WIND       PRES   REMARKS
ALPENA         MOSUNNY   77  54  44 S23G39    29.36F
BEAVER ISLAND  CLOUDY    62  55  77 S14G21    29.28S
BELLAIRE       CLOUDY    67  51  57 S22G30    29.30R
CADILLAC       PTSUNNY   66  51  58 S25G35    29.32F
CHARLEVOIX     CLOUDY    69  53  58 S16G26    29.32S
FRANKFORT      CLOUDY    64  53  68 S12G26    29.26F
GAYLORD        CLOUDY    68  50  52 S20G30    29.34S
GRAYLING       CLOUDY    71  53  52 S22G33    29.35S
HARBOR SPRINGS CLOUDY    67  51  57 S13G25    29.30S
HOUGHTON LAKE  PTSUNNY   67  51  56 S22G37    29.37R
MANISTEE       CLOUDY    61  50  67 S28G40    29.29R
OSCODA         PTSUNNY   75  51  43 S24G37    29.40F
PELLSTON       CLOUDY    70  50  49 S13G25    29.31S
ROGERS CITY    CLOUDY    75  52  45 S15G31    29.35S
TRAVERSE CITY  PTSUNNY   67  54  63 S8G22     29.27S
$$
MIZ007>008-015-271700-
EASTERN UPPER MICHIGAN

CITY           SKY/WX    TMP DP  RH WIND       PRES   REMARKS
KINROSS        PTSUNNY   70  57  63 SE22G30   29.29F
MACKINAC ISLAN CLOUDY    68  54  61 S15G22    29.30S
NEWBERRY       CLOUDY    46  45  97 NW3       29.29S FOG
S. S. MARIE    CLOUDY    63  52  67 SE17G23   29.32S
MUNISING         N/A     34  33  96 N7        29.31F WCI  28
$$
MIZ004>006-011>014-085-271700-
CENTRAL UPPER MICHIGAN

CITY           SKY/WX    TMP DP  RH WIND       PRES   REMARKS
MANISTIQUE     CLOUDY    38  38  97 N8        29.29S WCI  33
ESCANABA       MIX PCPN  36  35  96 VRB3      29.30R
MENOMINEE      CLOUDY    39  36  89 NW10G17   29.31F WCI  32
SAWYER-GWINN   LGT SNOW  32  30  93 N6        29.31R FOG     WCI  26
$$
MIZ001>003-009>011-084-271700-
WESTERN UPPER MICHIGAN

CITY           SKY/WX    TMP DP  RH WIND       PRES   REMARKS
IRON MOUNTAIN  LGT RAIN  35  31  85 NW14      29.31R FOG     WCI  26
HOUGHTON       MIX PCPN  28  24  85 N18       29.33F VSB 3/4 WCI  15
COPPER HARBOR    N/A     32  31  96 N20G25    29.33S WCI  20
IRONWOOD       SNOW      27  24  89 NW10      29.44R VSB 1/2 WCI  17
$$

ABBREVIATIONS USED IN REMARKS
   TC - TEMPERATURE IN CELSIUS
  WCI - WIND CHILL INDEX
   HX - HEAT INDEX
  VSB - VISIBILITY





USA.gov is the U.S. government's official web portal to all federal, state and local government web resources and services.